Crossville, TN

12:00 PM CDT on May 21, 2018 (GMT -0500)
Crossville Memorial-Whitson

Weather History for KCSV - April, 2013

Change the Weather History Date:

Thursday, April 25, 2013

  Actual Average Record
Temperature  
Mean Temperature 49 °F 58 °F  
Max Temperature 61 °F 69 °F 84 °F (2016)
Min Temperature 36 °F 48 °F 31 °F (1969)
Degree Days  
Heating Degree Days 16    
Month to date heating degree days 258  
Since 1 July heating degree days 4169  
Cooling Degree Days 0    
Month to date cooling degree days 21  
Year to date cooling degree days 21  
Moisture  
Dew Point 30 °F    
Average Humidity 54    
Maximum Humidity 86    
Minimum Humidity 22    
Precipitation  
Precipitation 0.00 in 0.17 in 1.13 in (1966)
Month to date precipitation 3.78 4.03  
Year to date precipitation 18.79 18.23  
Sea Level Pressure  
Sea Level Pressure 30.32 in    
Wind  
Wind Speed 5 mph (NNW)    
Max Wind Speed 26 mph    
Max Gust Speed 32 mph    
Visibility 10 miles    
Events      
T = Trace of Precipitation, MM = Missing Value Source: NWS Daily Summary

Daily Weather History Graph

Daily Weather History Graph

Search for Another Location

Airport or City:

Astronomy

Apr. 25, 2013 Rise Set
Actual Time 5:54 AM CDT 7:22 PM CDT
Civil Twilight 5:27 AM CDT 7:49 PM CDT
Nautical Twilight 4:55 AM CDT 8:22 PM CDT
Astronomical Twilight 4:21 AM CDT 8:56 PM CDT
Moon 7:33 PM CDT (4/25) 5:36 AM CDT (4/25)
Length of Visible Light 14h 22m
Length of Day
13h 28m
Full, 100% of the Moon is Illuminated
Apr 25
Full
Apr 25
Full
May 2
Last Quarter
May 9
New
May 17
First Quarter

Hourly Weather History & Observations

Time (CDT) Temp. Windchill Dew Point Humidity Pressure Visibility Wind Dir Wind Speed Gust Speed Precip Events Conditions
12:53 AM 41.0 °F 37.1 °F 37.0 °F 86% 30.25 in 10.0 mi North 5.8 mph - N/A   Overcast
1:53 AM 39.9 °F 35.1 °F 34.0 °F 79% 30.25 in 10.0 mi North 6.9 mph - N/A   Overcast
2:53 AM 39.9 °F 35.8 °F 33.1 °F 77% 30.26 in 10.0 mi North 5.8 mph - N/A   Overcast
3:53 AM 39.9 °F 35.8 °F 34.0 °F 79% 30.25 in 10.0 mi ENE 5.8 mph - N/A   Overcast
4:42 AM 39.2 °F 35.9 °F 32.0 °F 75% 30.25 in 10.0 mi NE 4.6 mph - N/A   Scattered Clouds
4:53 AM 37.9 °F 35.5 °F 32.0 °F 79% 30.26 in 10.0 mi North 3.5 mph - N/A   Clear
5:53 AM 37.0 °F 33.3 °F 32.0 °F 82% 30.29 in 10.0 mi North 4.6 mph - N/A   Clear
6:30 AM 37.4 °F 33.8 °F 33.8 °F 87% 30.29 in 10.0 mi NNW 4.6 mph - N/A   Mostly Cloudy
6:53 AM 37.0 °F 33.3 °F 33.1 °F 86% 30.32 in 10.0 mi North 4.6 mph - N/A   Overcast
7:20 AM 39.2 °F 35.0 °F 33.8 °F 81% 30.30 in 10.0 mi North 5.8 mph - N/A   Scattered Clouds
7:53 AM 42.1 °F 37.1 °F 33.1 °F 70% 30.33 in 10.0 mi North 8.1 mph - N/A   Clear
8:53 AM 44.1 °F 41.5 °F 33.1 °F 65% 30.34 in 10.0 mi Variable 4.6 mph - N/A   Clear
9:53 AM 46.9 °F - 33.1 °F 59% 30.35 in 10.0 mi Variable 5.8 mph - N/A   Clear
10:53 AM 51.1 °F - 30.9 °F 46% 30.37 in 10.0 mi NNW 8.1 mph - N/A   Clear
11:53 AM 52.0 °F - 28.9 °F 41% 30.35 in 10.0 mi Variable 3.5 mph - N/A   Clear
12:53 PM 55.9 °F - 28.0 °F 34% 30.34 in 10.0 mi NNW 8.1 mph - N/A   Clear
1:53 PM 57.9 °F - 21.9 °F 25% 30.33 in 10.0 mi Calm Calm - N/A   Clear
2:53 PM 60.1 °F - 21.9 °F 23% 30.31 in 10.0 mi Variable 5.8 mph - N/A   Clear
3:53 PM 60.1 °F - 21.9 °F 23% 30.31 in 10.0 mi NW 10.4 mph - N/A   Clear
4:53 PM 60.1 °F - 23.0 °F 24% 30.31 in 10.0 mi WNW 11.5 mph 16.1 mph N/A   Clear
5:53 PM 59.0 °F - 24.1 °F 26% 30.32 in 10.0 mi NW 5.8 mph - N/A   Clear
6:53 PM 55.9 °F - 26.1 °F 32% 30.33 in 10.0 mi WNW 5.8 mph - N/A   Clear
7:53 PM 53.1 °F - 26.1 °F 35% 30.33 in 10.0 mi Calm Calm - N/A   Clear
8:53 PM 51.1 °F - 28.0 °F 41% 30.36 in 10.0 mi NNW 3.5 mph - N/A   Clear
9:53 PM 48.0 °F - 28.9 °F 48% 30.37 in 10.0 mi Calm Calm - N/A   Clear
10:53 PM 43.0 °F - 30.9 °F 62% 30.38 in 10.0 mi Calm Calm - N/A   Clear
11:53 PM 39.9 °F - 32.0 °F 73% 30.38 in 10.0 mi Calm Calm - N/A   Clear